Address 0x98780411e33e19f5a5c0d8cea44d1a1e9a2f949f 22

 
Txn Hash Method
Block
From
To
Value [Txn Fee]
0x87b08d0ae65d1c51cbeb2953cc915f4d1ef7470d6caf2126a7ef6187d7dd3643Join Pool270572592022-09-27 20:25:3313 hrs 3 mins ago0x98780411e33e19f5a5c0d8cea44d1a1e9a2f949fOUT Balancer: Vault0 ETH0.00010699
0xa23ea4b739df9fb41f858ba7952244d1dca6b257f4d1949a9fc22598945fd685Approve270572362022-09-27 20:25:1813 hrs 3 mins ago0x98780411e33e19f5a5c0d8cea44d1a1e9a2f949fOUT 0xff970a61a04b1ca14834a43f5de4533ebddb5cc80 ETH0.00003745
0x7486818e54d26d9a1cf2b4eedf12245b1951436b063735a8ef8e1ec93557316fMulticall270571732022-09-27 20:24:4713 hrs 4 mins ago0x98780411e33e19f5a5c0d8cea44d1a1e9a2f949fOUT Uniswap V3: Router 20.000758336642467 ETH0.00009073
0xbc24e36d68377e7161f700580054835723c5cd4b60e9a53b5ea1ba4a0903e5a1Deposit270570802022-09-27 20:23:4613 hrs 5 mins ago0x98780411e33e19f5a5c0d8cea44d1a1e9a2f949fOUT Radiant: Lending Pool Logic0 ETH0.00007711
0x6828c76b13029717b1980c138a458d038dba2ec7cf680195944959bd8ac8102eApprove270570502022-09-27 20:23:2913 hrs 5 mins ago0x98780411e33e19f5a5c0d8cea44d1a1e9a2f949fOUT 0xff970a61a04b1ca14834a43f5de4533ebddb5cc80 ETH0.00003745
0xee2e4bc4b8a050128d07134537091762612e9c3cf9f6b165e4ad9abcea9ff90fApprove270570242022-09-27 20:23:1313 hrs 5 mins ago0x98780411e33e19f5a5c0d8cea44d1a1e9a2f949fOUT 0xff970a61a04b1ca14834a43f5de4533ebddb5cc80 ETH0.00003745
0x2a503096dc225c04dfd643c5a6b92a0ad78f408f50cdfe4dbf021783aaec3c8dMulticall270569812022-09-27 20:22:4213 hrs 6 mins ago0x98780411e33e19f5a5c0d8cea44d1a1e9a2f949fOUT Uniswap V3: Router 20.000758335226293 ETH0.00008919
0x1113bbaa555cce62f897dbc297e8418a87ed20edccb40904c8b653b0be750c62Add Liquidity ET...270568202022-09-27 20:21:2513 hrs 7 mins ago0x98780411e33e19f5a5c0d8cea44d1a1e9a2f949fOUT SushiSwap: Router0.000957647624708 ETH0.00007539
0x615bccae290be8e794a54523f9dae16a666bd22cc5521cc367fa7d3bd31e6727Approve270567632022-09-27 20:21:0513 hrs 8 mins ago0x98780411e33e19f5a5c0d8cea44d1a1e9a2f949fOUT 0xff970a61a04b1ca14834a43f5de4533ebddb5cc80 ETH0.00003745
0xb8a9b4f2c88222a2f3cc2643ac5d4e9ae4bffdf06196d5f566985b07b97204afMint And Stake G...270566682022-09-27 20:20:1913 hrs 8 mins ago0x98780411e33e19f5a5c0d8cea44d1a1e9a2f949fOUT 0xa906f338cb21815cbc4bc87ace9e68c87ef8d8f10.0001 ETH0.00015493
0xd51ff64423bfd5b7733b4a3e4f99448994aa67447574db0457d9fade53e8f4afAdd Liquidity268612202022-09-26 18:31:041 day 14 hrs ago0x98780411e33e19f5a5c0d8cea44d1a1e9a2f949fOUT 0x652d27c0f72771ce5c76fd400edd61b406ac6d970 ETH0.00007814
0xa6a31d228f45242cf0b597f6cfac63c14282fb88713cd13276c27caa5a104072Approve268611902022-09-26 18:30:511 day 14 hrs ago0x98780411e33e19f5a5c0d8cea44d1a1e9a2f949fOUT 0x82af49447d8a07e3bd95bd0d56f35241523fbab10 ETH0.00003934
0x18704b300f15d6669fc3757dae198b03fc4fac8524b695d8c43526c256f3daebDeposit267971302022-09-26 12:08:271 day 21 hrs ago0x98780411e33e19f5a5c0d8cea44d1a1e9a2f949fOUT 0x82af49447d8a07e3bd95bd0d56f35241523fbab10.0001 ETH0.00000927
0x5b26b15cef6a83d0e157c694a19f449914949fceb6af1595002872c5f8b79cc6Stake Gmx267969422022-09-26 12:07:491 day 21 hrs ago0x98780411e33e19f5a5c0d8cea44d1a1e9a2f949fOUT 0xa906f338cb21815cbc4bc87ace9e68c87ef8d8f10 ETH0.00005864
0xaab848a4c471e3abe41a77c6c66336f3834e20a464b1d488051c224ddd771e34Approve267967272022-09-26 12:07:051 day 21 hrs ago0x98780411e33e19f5a5c0d8cea44d1a1e9a2f949fOUT GMX: GMX Token0 ETH0.00000979
0x6721d90c45063995fe4fb6393103f001ce20d9a55dd830c865abebd57b9179d5Multicall267965482022-09-26 12:06:321 day 21 hrs ago0x98780411e33e19f5a5c0d8cea44d1a1e9a2f949fOUT Uniswap V3: Router 20.0001 ETH0.00002541
0xe52edb0bf6cae0aa005225051d25d90dca97675489b0840cdc2bfc805425d67fFulfill Basic Or...262487062022-09-23 18:48:004 days 14 hrs ago0x98780411e33e19f5a5c0d8cea44d1a1e9a2f949fOUTSeaport 1.10.00095 ETH0.00010118
0x77716a58e26e62d058d889d8b66b5fed43dfaa2225c39dda35dd1a8dc47fc77bSwap And Send262442882022-09-23 18:14:064 days 15 hrs ago0x98780411e33e19f5a5c0d8cea44d1a1e9a2f949fOUT 0x33ceb27b39d2bb7d2e61f7564d3df293440204170.005 ETH0.00004352
0x08ec4c7d4a31adb511cd1b84679a08efa85aff056a15c71db19dc1b3014f124eTransfer262438242022-09-23 18:11:414 days 15 hrs ago0xa9890411e33e19f5a5c0d8cea44d1a1e9a2fa5b0 IN 0x98780411e33e19f5a5c0d8cea44d1a1e9a2f949f0.0001 ETH0
0x360b1e010aa51c8dfa81d0062e8f5b510cb810d3b553b186e83e24f967e3a080Swap Exact ETH F...262426282022-09-23 18:06:184 days 15 hrs ago0x98780411e33e19f5a5c0d8cea44d1a1e9a2f949fOUT SushiSwap: Router0.0001 ETH0.00003708
0xa9694019361e13ae784341a9e0b819fc67a3e8286fd9627de9e2a26c295cf186Swap And Send231293252022-09-06 10:01:0921 days 23 hrs ago0x98780411e33e19f5a5c0d8cea44d1a1e9a2f949fOUT 0x33ceb27b39d2bb7d2e61f7564d3df293440204170.005 ETH0.00068345
0x130c67aa505e2a1b92fb5b3542147267dd4012d9cb54ef9b619e120c9e715d5dSwap Exact ETH F...225926642022-09-03 5:27:3525 days 4 hrs ago0x98780411e33e19f5a5c0d8cea44d1a1e9a2f949fOUT SushiSwap: Router0.0000011 ETH0.0006232
0xafb035f0355a4785d78b9b43ac17781f9276330956a6465144e06d8de1bf9c83Add Liquidity225923002022-09-03 5:23:5625 days 4 hrs ago0x98780411e33e19f5a5c0d8cea44d1a1e9a2f949fOUT 0x10541b07d8ad2647dc6cd67abd4c03575dade2610 ETH0.00076388
0x30f3ff2381749758e9c755812482c0238276fe73d4dd7a32d8ef8f6e98dc54f3Approve225922912022-09-03 5:23:4625 days 4 hrs ago0x98780411e33e19f5a5c0d8cea44d1a1e9a2f949fOUT Hop Protocol: hUSDC Token0 ETH0.00028504
0xdb4f6bf6543f43c79297396c0fb415de7ecbc7b84f1a5f7c5b74d68ed5437876Swap225922382022-09-03 5:23:0625 days 4 hrs ago0x98780411e33e19f5a5c0d8cea44d1a1e9a2f949fOUT 0x10541b07d8ad2647dc6cd67abd4c03575dade2610 ETH0.00059774
[ Download CSV Export 
Latest 8 internal transactions
Parent Txn Hash Block From To Value
0x7486818e54d26d9a1cf2b4eedf12245b1951436b063735a8ef8e1ec93557316f270571732022-09-27 20:24:4713 hrs 4 mins ago Uniswap V3: Router 20x98780411e33e19f5a5c0d8cea44d1a1e9a2f949f0.000000757579063404 ETH
0x2a503096dc225c04dfd643c5a6b92a0ad78f408f50cdfe4dbf021783aaec3c8d270569812022-09-27 20:22:4213 hrs 6 mins ago Uniswap V3: Router 20x98780411e33e19f5a5c0d8cea44d1a1e9a2f949f0.000000757577648644 ETH
0x5b9104abffd80bf3002a8183148aaafe49b2b2b83d2874f1a7e565ba60a93359200246892022-08-11 17:09:1647 days 16 hrs ago 0x46c0fe865545353311d61e247201a1de3ca0e62e0x98780411e33e19f5a5c0d8cea44d1a1e9a2f949f0.040591466130480841 ETH
0x991055c9ff26350e8312626892e90b7ef80521e9087e1f059a03f263e471bb65157296752022-06-25 7:19:0595 days 2 hrs ago 0x33ceb27b39d2bb7d2e61f7564d3df293440204170x98780411e33e19f5a5c0d8cea44d1a1e9a2f949f0.009291442074429481 ETH
0xdbd4d32418b7bfd9bda6163cb41b987f45ada340da0f1d0774bbedcfca639f8a153768042022-06-22 12:02:3497 days 21 hrs ago 0x46c0fe865545353311d61e247201a1de3ca0e62e0x98780411e33e19f5a5c0d8cea44d1a1e9a2f949f0.089991 ETH
0x1e054c0974ff362fbae427ed659076fd3e4832a5f381fde212272de629a79ffe142219802022-06-10 10:39:33109 days 22 hrs ago 0xd3b2a3a3faef1501755b290089d4daafdb6167c70x98780411e33e19f5a5c0d8cea44d1a1e9a2f949f0.015942357707384015 ETH
0x5d5187e311a12105de9000b4775b82ad5badc1ec6b1a4fdaea6a97b6d1ff72ec141297022022-06-09 7:42:23111 days 1 hr ago 0x33ceb27b39d2bb7d2e61f7564d3df293440204170x98780411e33e19f5a5c0d8cea44d1a1e9a2f949f0.008391172678020414 ETH
0xe473dcefe363838898237d1cdf3910a4e39a3559cb01bb510d2e16bf4447109c141285922022-06-09 7:27:27111 days 2 hrs ago 0x314f0a7bb5ddb4daecece9d3297e00e088713aff0x98780411e33e19f5a5c0d8cea44d1a1e9a2f949f0.009991604498176771 ETH
[ Download CSV Export 
Loading

Contract Name:
0 ETH

Compiler Version
0

Optimization Enabled:
0 ETH

Other Settings:
-NA-
Block Transaction Gas Used Reward
Age Block Fee Address BC Fee Address Voting Power Jailed Incoming
Block Uncle Number Difficulty Gas Used Reward
Loading
Make sure to use the "Vote Down" button for any spammy posts, and the "Vote Up" for interesting conversations.